Regional Weather Roundup
Issued by NWS

Home | Current Version | Previous Version | Text Only | Print | Product List | Glossary Off
Versions: 1 2 3 4 5 6 7 8 9 10 11 12 13 14 15 16 17 18 19 20 21 22 23 24 25 26 27 28 29 30 31 32 33 34 35 36 37 38 39 40 41 42 43 44 45 46 47 48 49 50

000
ASUS43 KMKX 231911
RWRWI

WISCONSIN REGIONAL WEATHER ROUNDUP
NATIONAL WEATHER SERVICE MILWAUKEE/SULLIVAN WI
100 PM CST THU FEB 23 2017

NOTE: "FAIR" INDICATES FEW OR NO CLOUDS BELOW 12,000 FEET WITH NO
SIGNIFICANT WEATHER AND/OR OBSTRUCTIONS TO VISIBILITY.

WIZ001-002-006>008-014>016-023>028-232000-
NORTHWEST WISCONSIN

CITY           SKY/WX    TMP DP  RH WIND       PRES   REMARKS
SUPERIOR ARPT  CLOUDY    30  23  76 N5        29.98F WCI  25
ASHLAND        CLOUDY    32  25  75 NW6       29.95S WCI  26
HAYWARD        CLOUDY    32  22  66 N6        29.92F WCI  26
SIREN          MOSUNNY   34  24  66 NE6       29.94F WCI  28
CUMBERLAND     PTSUNNY   34  25  69 N8        29.90F WCI  27
RICE LAKE      PTSUNNY   36  27  69 N7        29.91F WCI  30
CHETEK         PTSUNNY   37  26  65 CALM      29.89F
LADYSMITH      CLOUDY    38  27  66 N9        29.90F WCI  31
EAU CLAIRE     MOSUNNY   40  26  57 NE12      29.87F WCI  33
MENOMONIE      CLOUDY    39  28  63 N6        29.89F WCI  35
NEW RICHMOND   CLOUDY    37  26  65 NE10      29.91F WCI  30
OSCEOLA        CLOUDY    36  26  66 N12       29.96S WCI  27
$$

WIZ003>005-009-010-017-018-232000-
NORTH CENTRAL WISCONSIN

CITY           SKY/WX    TMP DP  RH WIND       PRES   REMARKS
MANITOWISH WTR CLOUDY    30  26  84 NW7       29.88F WCI  23
ARBOR VITAE    PTSUNNY   34  29  82 NW6         N/A  WCI  29
WOODRUFF       PTSUNNY   34  29  82 NW6         N/A  WCI  29
RHINELANDER    MOSUNNY   35  25  66 VRB5      29.87F WCI  31
EAGLE RIVER    CLOUDY    33  24  69 N6        29.86F WCI  27
LAND O LAKES   CLOUDY    33  26  75 NW5       29.88S WCI  28
PHILLIPS       CLOUDY    33  25  74 N8        29.88F WCI  26
TOMAHAWK       SUNNY     37  24  59 N7        29.87F WCI  32
MEDFORD        SUNNY     38  27  63 N7        29.85F WCI  33
MERRILL        NOT AVBL
$$

WIZ029-030-035-036-043>047-232000-
CENTRAL WISCONSIN

CITY           SKY/WX    TMP DP  RH WIND       PRES   REMARKS
WAUSAU         SUNNY     40  25  55 N10       29.84F WCI  33
MOSINEE        MOSUNNY   39  28  65 N9        29.86F WCI  33
MARSHFIELD     SUNNY     41  28  60 NE13      29.83F
STEVENS POINT  SUNNY     39  27  61 N9        29.85F WCI  33
WAUPACA        PTSUNNY   45  30  55 N7        29.86F
WAUTOMA        CLOUDY    44  31  60 VRB5      29.85F
WISC RAPIDS    SUNNY     45  30  55 NE8G17    29.85F
CAMP DOUGLAS   CLOUDY    43  30  61 N10       29.83F
$$

WIZ011>013-019>022-031-037>040-048>050-232000-
NORTHEAST WISCONSIN

CITY           SKY/WX    TMP DP  RH WIND       PRES   REMARKS
ANTIGO         SUNNY     37  26  64 N8        29.85F WCI  31
SHAWANO        SUNNY     44  28  54 E5        29.87F
OCONTO         SUNNY     41  26  54 NE7       29.87S
STURGEON BAY   SUNNY     38  26  62 NE10      29.87F WCI  31
GREEN BAY      PTSUNNY   42  33  70 N13       29.87F
MANITOWOC      CLOUDY    39  31  72 N13       29.87R WCI  31
APPLETON       PTSUNNY   39  28  65 NE10G17   29.85S WCI  32
CLINTONVILLE   MOSUNNY   43  28  56 NE5       29.86F
OSHKOSH        CLOUDY    40  30  67 NE13      29.86S WCI  32
$$

WIZ032>034-041-042-053>061-232000-
SOUTHWEST WISCONSIN

CITY           SKY/WX    TMP DP  RH WIND       PRES   REMARKS
LA CROSSE      PTSUNNY   44  30  57 N15G23    29.81F
SPARTA         CLOUDY    42  32  65 N13       29.83F
VIROQUA        PTSUNNY   42  32  67 N10G17    29.81R
BOSCOBEL       CLOUDY    46  32  58 VRB6      29.84R
PRAIRIE DU CHI CLOUDY    46  31  56 NE3       29.82S
PLATTEVILLE    CLOUDY    45  38  77 E8        29.81F
$$

WIZ056-057-062-063-064-067-068-232000-
SOUTH CENTRAL WISCONSIN

CITY           SKY/WX    TMP DP  RH WIND       PRES   REMARKS
REEDSBURG      CLOUDY    44  32  62 NE12G20   29.77F
BARABOO/DELLS  CLOUDY    44  32  62 NE16      29.77F
LONE ROCK      CLOUDY    46  33  60 SE6       29.84R
MINERAL POINT  CLOUDY    45  37  76 E6        29.82S
MADISON        CLOUDY    44  35  70 NE10G23   29.80F
MIDDLETON      CLOUDY    45  36  71 E8        29.83R
WATERTOWN      CLOUDY    43  37  78 NE13      29.80F
MONROE         CLOUDY    41  36  81 NE10      29.80F
JANESVILLE     CLOUDY    45  39  81 E9        29.81S
$$

WIZ051-052-058>065-066-070>072-232000-
SOUTHEAST WISCONSIN

CITY           SKY/WX    TMP DP  RH WIND       PRES   REMARKS
MILWAUKEE      CLOUDY    40  33  76 NE14      29.86F WCI  32
WAUKESHA       CLOUDY    39  34  81 NE9       29.85S WCI  33
MILWAUKEE/TIMM CLOUDY    39  30  70 NE9       29.87R WCI  33
RACINE         CLOUDY    40  32  73 NE16      29.86F WCI  31
KENOSHA        CLOUDY    40  32  73 NE13G31   29.82F WCI  32
FOND DU LAC    CLOUDY    40  30  67 NE15      29.87S WCI  32
SHEBOYGAN      CLOUDY    40  31  70 VRB7      29.88R
WEST BEND      CLOUDY    43  34  70 CALM      29.86R
JUNEAU         CLOUDY    42  33  69 N14       29.84F
$$

LSZ147-162-232000-
LAKE SUPERIOR

STATION/POSITION TIME  TEMP    WIND        PRES    WAVE
                       AIR SEA DIR/SP/G            HT/PER
                 (UTC) (F)     (DEG/KT/KT) (MB)    (FT/S)
DEVILS ISLAND    1900   31     270/  9/ 11 1014.6F
PORT WING        1840   30     270/  6/ 10 1014.9S
SAXON HARBOR     1840   31     340/  8/  9 1013.9S
$$

LMZ867-665-643>646-232000-
LAKE MICHIGAN

STATION/POSITION TIME  TEMP    WIND        PRES    WAVE
                       AIR SEA DIR/SP/G            HT/PER
                 (UTC) (F)     (DEG/KT/KT) (MB)    (FT/S)
CHAMBERS ISLAND  1840   34      20/  7/  8 1011.5F
NORTHPORT PIER   1840   35     330/  8/ 11 1012.2S
SISTER BAY       1835   40     350/ 15/ 20   N/A
KEWAUNEE LAKESHO 1848   40     350/  8/ 16 1011.3F
SHEBOYGAN LAKESH 1900   36      30/ 18/ 20 1011.8R
PORT WASHINGTON  1830   39      50/ 12/ 17 1012.2S
MILWAUKEE LAKESH 1850   37      50/ 12/ 13   N/A
KENOSHA   LAKESH 1900   37      30/ 14/ 25 1010.8
$$

TC  - TEMPERATURE IN CELSIUS
VSB - VISIBILITY IN STATUTE MILES
WCI - WIND CHILL INDEX
HX  - HEAT INDEX





USA.gov is the U.S. government's official web portal to all federal, state and local government web resources and services.